• în România
  • Lista ţărilor
  • Pe 7 zile
  • Temperatura apei
  • Hartă satelitară
  • Meteo pe hartă
  • Widget-uri
  • user-avatar
    Intrare

    Meteo pe oră la Graz

    Astăzi, 18 Ianuarie, Miercuri

    Timp Temperatura Precipitaţii Vânt Presiune Umiditate
    00:00 -8°C° 0 mm 2 m/s 733 mmHg 93%
    01:00 -9°C° 0 mm 2 m/s 733 mmHg 95%
    02:00 -9°C° 0 mm 2 m/s 733 mmHg 94%
    03:00 -9°C° 0 mm 2 m/s 733 mmHg 94%
    04:00 -9°C° 0 mm 2 m/s 733 mmHg 94%
    05:00 -9°C° 0 mm 2 m/s 733 mmHg 94%
    06:00 -9°C° 0 mm 2 m/s 733 mmHg 94%
    07:00 -10°C° 0 mm 2 m/s 733 mmHg 93%
    08:00 -9°C° 0 mm 2 m/s 734 mmHg 92%
    09:00 -7°C° 0 mm 2 m/s 734 mmHg 90%
    10:00 -6°C° 0 mm 2 m/s 734 mmHg 88%
    11:00 -5°C° 0 mm 2 m/s 734 mmHg 86%
    12:00 -4°C° 0 mm 2 m/s 734 mmHg 84%
    13:00 -3°C° 0 mm 2 m/s 734 mmHg 83%
    14:00 -4°C° 0 mm 2 m/s 734 mmHg 86%
    15:00 -3°C° 0 mm 1 m/s 734 mmHg 90%
    16:00 -4°C° 0 mm 1 m/s 734 mmHg 93%
    17:00 -6°C° 0 mm 1 m/s 734 mmHg 94%
    18:00 -7°C° 0 mm 1 m/s 734 mmHg 94%
    19:00 -9°C° 0 mm 2 m/s 734 mmHg 95%
    20:00 -9°C° 0 mm 1 m/s 734 mmHg 94%
    21:00 -9°C° 0 mm 1 m/s 735 mmHg 94%
    22:00 -9°C° 0 mm 1 m/s 735 mmHg 94%
    23:00 -10°C° 0 mm 1 m/s 735 mmHg 94%

    Mâine, 19 Ianuarie, Joi

    Timp Temperatura Precipitaţii Vânt Presiune Umiditate
    00:00 -10°C° 0 mm 1 m/s 735 mmHg 93%
    01:00 -10°C° 0 mm 1 m/s 735 mmHg 92%
    02:00 -10°C° 0 mm 1 m/s 735 mmHg 92%
    03:00 -10°C° 0 mm 1 m/s 735 mmHg 92%
    04:00 -11°C° 0 mm 1 m/s 735 mmHg 92%
    05:00 -11°C° 0 mm 1 m/s 735 mmHg 93%
    06:00 -11°C° 0 mm 1 m/s 735 mmHg 93%
    07:00 -11°C° 0 mm 1 m/s 735 mmHg 93%
    08:00 -9°C° 0 mm 1 m/s 735 mmHg 91%
    09:00 -7°C° 0 mm 1 m/s 736 mmHg 88%
    10:00 -3°C° 0 mm 1 m/s 736 mmHg 85%
    11:00 -2°C° 0 mm 1 m/s 736 mmHg 84%
    12:00 -2°C° 0 mm 1 m/s 736 mmHg 83%
    13:00 -1°C° 0 mm 1 m/s 736 mmHg 81%
    14:00 -2°C° 0 mm 1 m/s 736 mmHg 85%
    15:00 -4°C° 0 mm 1 m/s 735 mmHg 90%
    16:00 -6°C° 0 mm 1 m/s 735 mmHg 94%
    17:00 -8°C° 0 mm 1 m/s 735 mmHg 94%
    18:00 -9°C° 0 mm 1 m/s 735 mmHg 95%
    19:00 -11°C° 0 mm 1 m/s 735 mmHg 95%
    20:00 -11°C° 0 mm 1 m/s 735 mmHg 95%
    21:00 -11°C° 0 mm 1 m/s 735 mmHg 95%
    22:00 -11°C° 0 mm 1 m/s 735 mmHg 96%
    23:00 -11°C° 0 mm 0 m/s 735 mmHg 96%

    Poimâine, 20 Ianuarie, Vineri

    Timp Temperatura Precipitaţii Vânt Presiune Umiditate
    00:00 -12°C° 0 mm 0 m/s 735 mmHg 96%
    01:00 -12°C° 0 mm 0 m/s 735 mmHg 96%
    02:00 -12°C° 0 mm 0 m/s 735 mmHg 96%
    03:00 -12°C° 0 mm 0 m/s 735 mmHg 96%
    04:00 -12°C° 0 mm 0 m/s 735 mmHg 96%
    05:00 -12°C° 0 mm 0 m/s 735 mmHg 95%
    06:00 -12°C° 0 mm 0 m/s 735 mmHg 95%
    07:00 -12°C° 0 mm 0 m/s 735 mmHg 94%
    08:00 -9°C° 0 mm 0 m/s 735 mmHg 91%
    09:00 -7°C° 0 mm 0 m/s 735 mmHg 87%
    10:00 -4°C° 0 mm 0 m/s 736 mmHg 84%
    11:00 -3°C° 0 mm 0 m/s 736 mmHg 83%
    12:00 -1°C° 0 mm 1 m/s 735 mmHg 82%
    13:00 0°C° 0 mm 1 m/s 735 mmHg 81%
    14:00 -2°C° 0 mm 1 m/s 735 mmHg 85%
    15:00 -3°C° 0 mm 1 m/s 735 mmHg 90%
    16:00 -4°C° 0 mm 1 m/s 734 mmHg 95%
    17:00 -7°C° 0 mm 1 m/s 734 mmHg 96%
    18:00 -8°C° 0 mm 1 m/s 734 mmHg 96%
    19:00 -10°C° 0 mm 0 m/s 734 mmHg 97%
    20:00 -10°C° 0 mm 0 m/s 734 mmHg 97%
    21:00 -10°C° 0 mm 0 m/s 734 mmHg 97%
    22:00 -10°C° 0 mm 0 m/s 734 mmHg 97%
    23:00 -11°C° 0 mm 0 m/s 734 mmHg 97%

    21 Ianuarie, Sâmbătă

    Timp Temperatura Precipitaţii Vânt Presiune Umiditate
    00:00 -11°C° 0 mm 0 m/s 734 mmHg 97%
    01:00 -11°C° 0 mm 0 m/s 733 mmHg 97%
    02:00 -11°C° 0 mm 0 m/s 733 mmHg 97%
    03:00 -11°C° 0 mm 0 m/s 733 mmHg 96%
    04:00 -11°C° 0 mm 0 m/s 733 mmHg 96%
    05:00 -11°C° 0 mm 0 m/s 733 mmHg 96%
    06:00 -11°C° 0 mm 0 m/s 733 mmHg 96%
    07:00 -11°C° 0 mm 0 m/s 733 mmHg 97%
    08:00 -8°C° 0 mm 0 m/s 733 mmHg 93%
    09:00 -6°C° 0 mm 0 m/s 734 mmHg 90%
    10:00 -3°C° 0 mm 0 m/s 734 mmHg 87%
    11:00 -2°C° 0 mm 0 m/s 734 mmHg 86%
    12:00 0°C° 0 mm 1 m/s 734 mmHg 85%
    13:00 +1°C° 0 mm 1 m/s 734 mmHg 84%
    14:00 0°C° 0 mm 1 m/s 734 mmHg 88%
    15:00 -2°C° 0 mm 1 m/s 733 mmHg 93%
    16:00 -3°C° 0 mm 1 m/s 733 mmHg 97%
    17:00 -4°C° 0 mm 1 m/s 733 mmHg 97%
    18:00 -7°C° 0 mm 1 m/s 733 mmHg 98%
    19:00 -9°C° 0 mm 0 m/s 733 mmHg 98%
    20:00 -9°C° 0 mm 0 m/s 734 mmHg 98%
    21:00 -9°C° 0 mm 0 m/s 734 mmHg 98%
    22:00 -9°C° 0 mm 0 m/s 734 mmHg 98%
    23:00 -9°C° 0 mm 0 m/s 734 mmHg 98%

    22 Ianuarie, Duminică

    Timp Temperatura Precipitaţii Vânt Presiune Umiditate
    00:00 -9°C° 0 mm 0 m/s 734 mmHg 98%
    01:00 -9°C° 0 mm 0 m/s 734 mmHg 98%
    02:00 -9°C° 0 mm 0 m/s 734 mmHg 98%
    03:00 -9°C° 0 mm 1 m/s 734 mmHg 98%
    04:00 -9°C° 0 mm 1 m/s 734 mmHg 98%
    05:00 -9°C° 0 mm 1 m/s 734 mmHg 98%
    06:00 -9°C° 0 mm 1 m/s 734 mmHg 98%
    07:00 -9°C° 0 mm 1 m/s 734 mmHg 98%
    08:00 -7°C° 0 mm 1 m/s 734 mmHg 96%
    09:00 -4°C° 0 mm 1 m/s 735 mmHg 94%
    10:00 -2°C° 0 mm 1 m/s 735 mmHg 93%
    11:00 -1°C° 0 mm 1 m/s 735 mmHg 91%
    12:00 0°C° 0 mm 1 m/s 734 mmHg 89%
    13:00 +1°C° 0 mm 1 m/s 734 mmHg 87%
    14:00 0°C° 0 mm 1 m/s 733 mmHg 90%
    15:00 -1°C° 0 mm 1 m/s 733 mmHg 93%
    16:00 -2°C° 0 mm 1 m/s 733 mmHg 96%
    17:00 -4°C° 0 mm 1 m/s 733 mmHg 96%
    18:00 -6°C° 0 mm 1 m/s 732 mmHg 97%
    19:00 -7°C° 0 mm 1 m/s 732 mmHg 97%
    20:00 -7°C° 0 mm 1 m/s 732 mmHg 97%
    21:00 -7°C° 0 mm 1 m/s 732 mmHg 96%
    22:00 -7°C° 0 mm 1 m/s 732 mmHg 96%
    23:00 -8°C° 0 mm 1 m/s 732 mmHg 95%

    23 Ianuarie, Luni

    Timp Temperatura Precipitaţii Vânt Presiune Umiditate
    00:00 -8°C° 0 mm 1 m/s 732 mmHg 95%
    01:00 -8°C° 0 mm 1 m/s 731 mmHg 94%
    02:00 -8°C° 0 mm 1 m/s 731 mmHg 94%
    03:00 -8°C° 0 mm 1 m/s 731 mmHg 93%
    04:00 -8°C° 0 mm 1 m/s 730 mmHg 93%
    05:00 -8°C° 0 mm 1 m/s 730 mmHg 93%
    06:00 -8°C° 0 mm 1 m/s 730 mmHg 93%
    07:00 -8°C° 0 mm 1 m/s 730 mmHg 92%
    08:00 -6°C° 0 mm 1 m/s 730 mmHg 89%
    09:00 -2°C° 0 mm 1 m/s 731 mmHg 86%
    10:00 0°C° 0 mm 1 m/s 731 mmHg 83%
    11:00 +1°C° 0 mm 1 m/s 731 mmHg 83%
    12:00 +2°C° 0 mm 1 m/s 730 mmHg 84%
    13:00 +2°C° 0 mm 0 m/s 730 mmHg 84%
    14:00 0°C° 0 mm 0 m/s 730 mmHg 88%
    15:00 -1°C° 0 mm 0 m/s 729 mmHg 92%
    16:00 -3°C° 0 mm 0 m/s 729 mmHg 95%
    17:00 -5°C° 0 mm 0 m/s 729 mmHg 96%
    18:00 -7°C° 0 mm 0 m/s 729 mmHg 97%
    19:00 -8°C° 0 mm 0 m/s 729 mmHg 98%
    20:00 -8°C° 0 mm 0 m/s 729 mmHg 97%
    21:00 -7°C° 0 mm 0 m/s 729 mmHg 97%
    22:00 -6°C° 0 mm 1 m/s 730 mmHg 96%
    23:00 -6°C° 0 mm 1 m/s 730 mmHg 96%
    Arată mai mult